contact: severine.martini@mio.osupytheas.fr, dominique.lefevre@mio.osupytheas.fr
Project:EMSO Ligure-ouest http://www.emso-fr.org/EMSO-France
Sensor Aquadopp, Serial 05974 
DOI : "https://doi.org/10.17882/97948" 
Title:EMSO Western Ligurian : Data Bathybot Aquadopp sensor - deploiement 2023-04-28
Datetime,Profondeur,Latitude,Longitude,X_East,Y_North,Z_up,Amplitude_X,Amplitude_Y,Amplitude_Z,Batterie,Sound_Speed,Heading,Pitch,Roll,Pressure,Temperature,Fluorescence,Speed,Direction
time,m,degree_north,degree_east,m.s-1,m.s-1,m.s-1,1,1,1,Volt,m.s-1,degree,degree,degree,dbar,degree_C,arbitrary units (a.u.),m.s-1,degree
2023-12-20T00:03:12,2420,42.8014,5.9826,0.184,0.27,2.924,155.0,152.0,152.0,11.8,1504.7,271.4,-0.8,0.9,2485.362,13.28,763.0,0.327,34.3
2023-12-20T00:06:13,2420,42.8014,5.9826,0.275,-0.204,3.689,155.0,151.0,152.0,11.8,1504.7,271.4,-0.8,0.9,2485.053,13.28,776.0,0.342,126.6
2023-12-20T00:09:13,2420,42.8014,5.9826,0.746,0.29,3.203,155.0,151.0,152.0,11.8,1504.7,271.4,-0.8,0.9,2485.103,13.28,768.0,0.8,68.8
2023-12-20T00:12:13,2420,42.8014,5.9826,0.633,-0.2,3.363,155.0,151.0,152.0,11.8,1504.7,271.4,-0.8,0.9,2485.087,13.28,767.0,0.664,107.5
2023-12-20T00:15:13,2420,42.8014,5.9826,0.215,0.29,3.752,155.0,152.0,152.0,11.8,1504.7,271.3,-0.8,0.9,2485.384,13.28,850.0,0.361,36.6
2023-12-20T00:18:13,2420,42.8014,5.9826,0.469,0.276,3.513,155.0,152.0,152.0,11.8,1504.7,271.3,-0.8,0.9,2485.47,13.28,774.0,0.544,59.5
2023-12-20T00:21:13,2420,42.8014,5.9826,0.808,0.029,3.561,155.0,151.0,152.0,11.8,1504.7,271.5,-0.8,0.9,2485.488,13.28,774.0,0.809,87.9
2023-12-20T00:24:12,2420,42.8014,5.9826,-0.045,0.77,2.256,155.0,151.0,152.0,11.8,1504.7,271.4,-0.8,0.9,2485.115,13.28,776.0,0.771,356.7
2023-12-20T00:27:12,2420,42.8014,5.9826,0.655,0.056,3.786,155.0,151.0,152.0,11.8,1504.7,271.3,-0.9,0.9,2485.771,13.28,773.0,0.657,85.1
2023-12-20T00:30:13,2420,42.8014,5.9826,0.296,0.021,3.243,155.0,151.0,152.0,11.8,1504.7,271.3,-0.8,0.9,2485.466,13.28,776.0,0.297,85.9
2023-12-20T00:33:12,2420,42.8014,5.9826,0.408,0.53,3.089,155.0,151.0,152.0,11.8,1504.7,271.3,-0.9,0.9,2485.486,13.28,773.0,0.669,37.6
2023-12-20T00:36:13,2420,42.8014,5.9826,0.113,0.295,2.977,155.0,152.0,152.0,11.8,1504.7,271.3,-0.8,0.9,2485.414,13.28,1003.0,0.316,21.0
2023-12-20T00:39:13,2420,42.8014,5.9826,0.375,0.046,3.133,155.0,151.0,152.0,11.8,1504.7,271.3,-0.8,0.9,2485.338,13.28,768.0,0.378,83.0
2023-12-20T00:42:13,2420,42.8014,5.9826,0.456,-0.201,3.487,155.0,151.0,152.0,11.7,1504.7,271.3,-0.9,0.9,2485.402,13.28,767.0,0.498,113.8
2023-12-20T00:45:13,2420,42.8014,5.9826,0.375,0.059,4.044,155.0,151.0,152.0,11.8,1504.7,271.3,-0.8,0.9,2484.964,13.28,772.0,0.38,81.1
2023-12-20T00:48:13,2420,42.8014,5.9826,0.904,0.523,2.631,155.0,151.0,152.0,11.8,1504.7,271.5,-0.8,0.9,2485.063,13.28,774.0,1.044,59.9
2023-12-20T00:51:13,2420,42.8014,5.9826,0.383,0.309,3.589,155.0,151.0,152.0,11.8,1504.7,271.4,-0.8,0.9,2485.151,13.28,799.0,0.492,51.1
2023-12-20T00:54:13,2420,42.8014,5.9826,0.452,0.034,3.057,155.0,151.0,152.0,11.8,1504.7,271.3,-0.8,0.9,2485.508,13.28,1032.0,0.453,85.7
2023-12-20T00:57:13,2420,42.8014,5.9826,0.396,-0.207,3.536,155.0,151.0,152.0,11.8,1504.7,271.3,-0.8,0.9,2485.422,13.28,1422.0,0.447,117.6
2023-12-20T01:03:13,2420,42.8014,5.9826,0.624,-0.206,3.317,155.0,152.0,152.0,11.8,1504.7,271.4,-0.8,0.8,2485.297,13.28,1042.0,0.657,108.3
2023-12-20T01:06:13,2420,42.8014,5.9826,0.119,-0.429,3.41,155.0,152.0,152.0,11.8,1504.7,271.5,-0.8,0.9,2485.113,13.28,1050.0,0.445,164.5
2023-12-20T01:09:13,2420,42.8014,5.9826,0.521,0.073,3.879,155.0,151.0,152.0,11.7,1504.7,271.4,-0.8,0.9,2485.263,13.28,1012.0,0.526,82.0
2023-12-20T01:12:12,2420,42.8014,5.9826,0.291,-0.201,3.636,155.0,151.0,152.0,11.8,1504.7,271.4,-0.8,0.9,2485.203,13.28,1033.0,0.354,124.6
2023-12-20T01:15:12,2420,42.8014,5.9826,0.188,-0.46,2.448,155.0,151.0,152.0,11.8,1504.7,271.3,-0.9,0.9,2485.52,13.28,1139.0,0.497,157.8
2023-12-20T01:18:13,2420,42.8014,5.9826,0.468,0.038,3.941,155.0,152.0,152.0,11.8,1504.7,271.3,-0.8,0.9,2485.354,13.28,1065.0,0.47,85.4
2023-12-20T01:21:13,2420,42.8014,5.9826,0.709,0.05,3.701,155.0,151.0,152.0,11.8,1504.7,271.3,-0.8,0.9,2485.171,13.28,996.0,0.711,86.0
2023-12-20T01:24:13,2420,42.8014,5.9826,0.663,-0.212,3.284,155.0,151.0,152.0,11.8,1504.7,271.3,-0.8,0.9,2485.243,13.28,992.0,0.696,107.7
2023-12-20T01:27:13,2420,42.8014,5.9826,0.546,0.046,3.824,155.0,152.0,152.0,11.8,1504.7,271.4,-0.8,0.9,2485.544,13.28,998.0,0.548,85.2
2023-12-20T01:30:13,2420,42.8014,5.9826,0.327,0.555,3.224,155.0,152.0,152.0,11.8,1504.7,271.3,-0.8,0.9,2485.233,13.28,1002.0,0.644,30.5
2023-12-20T01:33:13,2420,42.8014,5.9826,0.425,0.056,3.11,155.0,152.0,152.0,11.8,1504.7,271.4,-0.8,0.9,2485.297,13.28,996.0,0.429,82.5
2023-12-20T01:36:13,2420,42.8014,5.9826,0.275,0.051,3.248,155.0,151.0,152.0,11.8,1504.7,271.3,-0.8,0.9,2485.285,13.28,773.0,0.28,79.5
2023-12-20T01:39:13,2420,42.8014,5.9826,0.369,0.037,3.163,155.0,151.0,152.0,11.8,1504.7,271.3,-0.8,0.9,2485.221,13.28,768.0,0.371,84.3
2023-12-20T01:42:13,2420,42.8014,5.9826,0.877,0.033,3.513,155.0,152.0,152.0,11.8,1504.7,271.4,-0.8,0.9,2485.093,13.28,761.0,0.878,87.8
2023-12-20T01:45:13,2420,42.8014,5.9826,0.289,0.06,3.232,155.0,152.0,152.0,11.8,1504.7,271.3,-0.8,0.9,2485.129,13.28,764.0,0.295,78.3
2023-12-20T01:48:13,2420,42.8014,5.9826,0.627,0.04,3.792,155.0,152.0,152.0,11.8,1504.7,271.3,-0.9,0.9,2485.472,13.28,771.0,0.628,86.4
2023-12-20T01:51:13,2420,42.8014,5.9826,0.475,-0.207,3.465,155.0,151.0,152.0,11.8,1504.7,271.4,-0.8,0.9,2485.454,13.28,767.0,0.518,113.5
2023-12-20T01:54:13,2420,42.8014,5.9826,0.417,0.29,3.539,155.0,151.0,152.0,11.8,1504.7,271.4,-0.8,0.9,2485.093,13.28,766.0,0.508,55.2
2023-12-20T01:57:13,2420,42.8014,5.9826,0.503,-0.225,3.486,155.0,151.0,152.0,11.8,1504.7,271.3,-0.9,0.9,2485.183,13.28,750.0,0.551,114.1
2023-12-20T02:03:13,2420,42.8014,5.9826,0.677,-0.199,3.295,155.0,151.0,152.0,11.8,1504.7,271.3,-0.8,0.9,2485.229,13.28,769.0,0.706,106.4
2023-12-20T02:06:13,2420,42.8014,5.9826,0.647,0.293,3.28,155.0,151.0,152.0,11.8,1504.7,271.4,-0.9,0.9,2485.332,13.28,772.0,0.71,65.6
2023-12-20T02:09:13,2420,42.8014,5.9826,0.199,0.033,2.423,155.0,151.0,152.0,11.8,1504.7,271.4,-0.8,0.9,2485.398,13.28,763.0,0.201,80.6
2023-12-20T02:12:13,2420,42.8014,5.9826,0.334,0.036,3.189,155.0,151.0,152.0,11.8,1504.7,271.3,-0.8,0.9,2485.123,13.28,776.0,0.336,83.9
2023-12-20T02:15:13,2420,42.8014,5.9826,0.253,-0.439,3.252,155.0,151.0,152.0,11.8,1504.7,271.4,-0.8,0.9,2485.498,13.28,779.0,0.507,150.0
2023-12-20T02:18:13,2420,42.8014,5.9826,0.211,0.536,2.413,155.0,151.0,152.0,11.7,1504.7,271.4,-0.8,0.9,2485.382,13.28,774.0,0.576,21.5
2023-12-20T02:21:13,2420,42.8014,5.9826,0.102,-0.693,2.997,155.0,151.0,152.0,11.8,1504.7,271.5,-0.8,0.9,2485.185,13.28,765.0,0.7,171.6
2023-12-20T02:24:13,2420,42.8014,5.9826,0.659,0.055,3.761,155.0,151.0,152.0,11.8,1504.7,271.3,-0.8,0.9,2485.532,13.28,767.0,0.661,85.2
2023-12-20T02:27:12,2420,42.8014,5.9826,0.636,0.302,3.304,155.0,151.0,152.0,11.8,1504.7,271.4,-0.8,0.9,2485.038,13.28,764.0,0.704,64.6
2023-12-20T02:30:13,2420,42.8014,5.9826,0.463,-0.224,2.598,155.0,151.0,152.0,11.8,1504.7,271.5,-0.8,0.9,2485.482,13.28,766.0,0.514,115.8
2023-12-20T02:33:13,2420,42.8014,5.9826,0.705,0.304,3.227,155.0,151.0,152.0,11.8,1504.7,271.5,-0.8,0.9,2485.562,13.28,761.0,0.768,66.7
2023-12-20T02:36:13,2420,42.8014,5.9826,0.506,0.033,2.991,155.0,152.0,152.0,11.8,1504.7,271.3,-0.8,0.9,2485.032,13.28,775.0,0.507,86.3
2023-12-20T02:39:13,2420,42.8014,5.9826,0.684,0.295,3.221,155.0,151.0,152.0,11.8,1504.7,271.4,-0.8,0.9,2485.556,13.28,763.0,0.745,66.7
2023-12-20T02:42:13,2420,42.8014,5.9826,0.374,0.541,3.148,155.0,151.0,152.0,11.8,1504.7,271.3,-0.8,0.9,2485.536,13.28,767.0,0.658,34.7
2023-12-20T02:45:13,2420,42.8014,5.9826,0.648,0.044,2.857,155.0,151.0,152.0,11.8,1504.7,271.4,-0.9,0.9,2485.297,13.28,774.0,0.649,86.1
2023-12-20T02:48:13,2420,42.8014,5.9826,0.06,0.296,3.021,155.0,151.0,152.0,11.8,1504.7,271.4,-0.8,0.9,2485.257,13.28,744.0,0.302,11.5
2023-12-20T02:51:13,2420,42.8014,5.9826,0.279,0.275,2.775,155.0,151.0,152.0,11.8,1504.7,271.3,-0.8,0.9,2485.446,13.28,754.0,0.392,45.4
2023-12-20T02:54:13,2420,42.8014,5.9826,0.727,0.661,2.542,155.0,152.0,153.0,11.8,1504.7,271.3,-0.8,0.9,2485.55,13.28,767.0,0.983,47.7
2023-12-20T02:57:13,2420,42.8014,5.9826,0.468,0.07,3.916,155.0,152.0,152.0,11.8,1504.7,271.4,-0.8,0.9,2485.149,13.28,766.0,0.473,81.5
2023-12-20T03:03:13,2420,42.8014,5.9826,0.765,0.057,3.61,155.0,151.0,152.0,11.8,1504.7,271.0,-0.8,0.9,2484.922,13.28,774.0,0.767,85.7
2023-12-20T03:06:13,2420,42.8014,5.9826,0.997,-0.211,2.913,155.0,151.0,152.0,11.8,1504.7,271.3,-0.8,0.9,2485.207,13.28,775.0,1.019,101.9
2023-12-20T03:09:13,2420,42.8014,5.9826,0.209,0.063,4.129,155.0,152.0,152.0,11.7,1504.7,271.3,-0.8,0.9,2484.802,13.28,758.0,0.218,73.2
2023-12-20T03:12:13,2420,42.8014,5.9826,0.275,0.057,4.072,155.0,152.0,152.0,11.7,1504.7,271.0,-0.8,0.9,2484.761,13.28,765.0,0.281,78.3
2023-12-20T03:15:13,2420,42.8014,5.9826,0.091,0.08,4.223,155.0,152.0,153.0,11.7,1504.7,271.8,-0.8,0.9,2485.326,13.28,776.0,0.121,48.7
2023-12-20T03:18:13,2420,42.8014,5.9826,0.832,-0.197,3.086,155.0,152.0,152.0,11.8,1504.7,271.3,-0.8,0.9,2485.175,13.28,757.0,0.855,103.3
2023-12-20T03:21:13,2420,42.8014,5.9826,0.471,-0.201,3.472,155.0,151.0,152.0,11.8,1504.7,271.4,-0.8,0.9,2485.34,13.28,761.0,0.512,113.1
2023-12-20T03:24:12,2420,42.8014,5.9826,0.808,0.037,3.603,155.0,151.0,152.0,11.7,1504.7,271.5,-0.8,0.9,2485.115,13.28,768.0,0.809,87.4
2023-12-20T03:27:12,2420,42.8014,5.9826,0.269,-0.179,3.664,155.0,151.0,152.0,11.8,1504.7,271.3,-0.8,0.9,2485.468,13.28,764.0,0.323,123.6
2023-12-20T03:30:12,2420,42.8014,5.9826,0.588,0.052,3.831,155.0,151.0,152.0,11.8,1504.7,271.5,-0.8,0.9,2485.297,13.28,765.0,0.59,85.0
2023-12-20T03:33:13,2420,42.8014,5.9826,0.413,0.28,2.692,155.0,151.0,152.0,11.8,1504.7,271.4,-0.8,0.9,2485.271,13.28,779.0,0.499,55.9
2023-12-20T03:36:13,2420,42.8014,5.9826,0.793,0.06,3.543,155.0,151.0,152.0,11.8,1504.7,271.3,-0.8,0.9,2485.277,13.28,769.0,0.795,85.7
2023-12-20T03:39:12,2420,42.8014,5.9826,0.408,0.282,3.555,155.0,151.0,152.0,11.8,1504.7,271.3,-0.8,0.9,2485.123,13.28,772.0,0.496,55.3
2023-12-20T03:42:12,2420,42.8014,5.9826,0.426,0.062,3.957,155.0,151.0,152.0,11.8,1504.7,271.3,-0.9,0.9,2485.398,13.28,767.0,0.43,81.7
2023-12-20T03:45:12,2420,42.8014,5.9826,0.303,0.299,3.643,155.0,151.0,152.0,11.8,1504.7,271.4,-0.8,0.9,2485.713,13.28,764.0,0.426,45.4
2023-12-20T03:48:13,2420,42.8014,5.9826,0.399,0.061,3.987,155.0,151.0,152.0,11.8,1504.7,271.3,-0.8,0.9,2485.257,13.28,781.0,0.404,81.3
2023-12-20T03:51:13,2420,42.8014,5.9826,0.831,0.035,3.568,155.0,151.0,152.0,11.8,1504.7,271.4,-0.8,0.9,2485.44,13.28,779.0,0.832,87.6
2023-12-20T03:54:13,2420,42.8014,5.9826,0.247,0.042,3.268,155.0,151.0,152.0,11.7,1504.7,271.5,-0.8,0.9,2485.37,13.28,773.0,0.25,80.4
2023-12-20T03:57:13,2420,42.8014,5.9826,0.966,0.045,3.4,155.0,151.0,152.0,11.8,1504.7,271.3,-0.9,0.9,2485.119,13.28,768.0,0.967,87.3
2023-12-20T04:03:12,2420,42.8014,5.9826,0.376,0.057,4.016,155.0,151.0,152.0,11.8,1504.7,271.3,-0.8,0.9,2485.285,13.28,763.0,0.38,81.4
2023-12-20T04:06:13,2420,42.8014,5.9826,0.397,-0.192,3.467,155.0,151.0,152.0,11.7,1504.7,271.6,-0.8,0.9,2485.516,13.28,766.0,0.441,115.8
2023-12-20T04:09:13,2420,42.8014,5.9826,0.703,-0.739,2.345,155.0,151.0,152.0,11.8,1504.7,271.6,-0.8,0.9,2485.366,13.28,769.0,1.02,136.4
2023-12-20T04:12:13,2420,42.8014,5.9826,0.362,-0.195,3.588,155.0,151.0,152.0,11.8,1504.7,271.4,-0.8,0.9,2485.378,13.28,773.0,0.411,118.3
2023-12-20T04:15:13,2420,42.8014,5.9826,0.275,-0.189,3.676,155.0,151.0,152.0,11.8,1504.7,271.4,-0.9,0.9,2485.37,13.28,783.0,0.334,124.5
2023-12-20T04:18:13,2420,42.8014,5.9826,0.598,-0.212,3.313,155.0,151.0,152.0,11.8,1504.7,271.5,-0.8,0.9,2485.577,13.28,763.0,0.634,109.5
2023-12-20T04:21:13,2420,42.8014,5.9826,0.521,0.046,3.85,155.0,151.0,152.0,11.8,1504.7,271.3,-0.8,0.9,2485.536,13.28,769.0,0.523,85.0
2023-12-20T04:24:13,2420,42.8014,5.9826,0.307,0.066,4.123,155.0,151.0,152.0,11.8,1504.7,271.4,-0.8,0.9,2485.245,13.28,764.0,0.314,77.9
2023-12-20T04:27:12,2420,42.8014,5.9826,0.536,0.051,2.979,155.0,152.0,152.0,11.8,1504.7,271.4,-0.8,0.8,2485.392,13.28,759.0,0.538,84.6
2023-12-20T04:30:13,2420,42.8014,5.9826,0.721,0.283,3.209,155.0,151.0,152.0,11.8,1504.7,271.3,-0.8,0.9,2484.976,13.28,772.0,0.775,68.6
2023-12-20T04:33:12,2420,42.8014,5.9826,1.099,0.033,3.257,155.0,152.0,152.0,11.8,1504.7,271.4,-0.8,0.9,2485.299,13.28,759.0,1.099,88.3
2023-12-20T04:36:12,2420,42.8014,5.9826,0.523,0.043,3.827,155.0,151.0,152.0,11.8,1504.7,271.4,-0.8,0.9,2485.121,13.28,768.0,0.525,85.3
2023-12-20T04:39:13,2420,42.8014,5.9826,0.484,0.277,3.446,155.0,151.0,152.0,11.8,1504.7,271.7,-0.8,0.9,2485.063,13.28,760.0,0.558,60.2
2023-12-20T04:42:13,2420,42.8014,5.9826,0.449,0.068,3.96,155.0,152.0,152.0,11.8,1504.7,271.3,-0.8,0.9,2485.35,13.28,766.0,0.454,81.4
2023-12-20T04:45:13,2420,42.8014,5.9826,0.27,0.285,2.827,155.0,151.0,152.0,11.8,1504.7,271.5,-0.9,0.8,2485.235,13.28,776.0,0.393,43.5
2023-12-20T04:48:13,2420,42.8014,5.9826,0.499,0.054,2.966,155.0,151.0,152.0,11.8,1504.7,271.4,-0.8,0.9,2485.484,13.28,768.0,0.502,83.8
2023-12-20T04:51:13,2420,42.8014,5.9826,0.67,0.039,3.738,155.0,151.0,152.0,11.8,1504.7,271.5,-0.9,0.9,2485.261,13.28,785.0,0.671,86.7
2023-12-20T04:54:13,2420,42.8014,5.9826,0.094,0.053,3.415,155.0,151.0,152.0,11.8,1504.7,271.4,-0.8,0.9,2485.414,13.28,777.0,0.107,60.6
2023-12-20T04:57:12,2420,42.8014,5.9826,0.437,-0.188,3.515,155.0,152.0,152.0,11.8,1504.7,271.4,-0.8,0.9,2484.85,13.28,771.0,0.476,113.3
2023-12-20T05:03:13,2420,42.8014,5.9826,0.353,-0.195,3.604,155.0,152.0,152.0,11.8,1504.7,271.4,-0.8,0.9,2485.247,13.28,753.0,0.403,118.9
2023-12-20T05:06:13,2420,42.8014,5.9826,0.706,0.05,3.673,155.0,151.0,152.0,11.7,1504.7,271.3,-0.8,0.9,2485.187,13.28,771.0,0.708,86.0
2023-12-20T05:09:13,2420,42.8014,5.9826,0.322,0.288,2.733,155.0,151.0,152.0,11.8,1504.7,271.5,-0.8,0.9,2485.263,13.28,777.0,0.432,48.2
2023-12-20T05:12:13,2420,42.8014,5.9826,0.554,0.047,3.859,155.0,151.0,152.0,11.7,1504.7,271.4,-0.8,0.9,2485.237,13.28,751.0,0.556,85.2
2023-12-20T05:15:13,2420,42.8014,5.9826,0.377,0.294,3.611,155.0,151.0,152.0,11.8,1504.7,271.3,-0.8,0.9,2485.677,13.28,762.0,0.478,52.1
2023-12-20T05:18:13,2420,42.8014,5.9826,0.724,0.034,3.646,155.0,151.0,152.0,11.8,1504.7,271.3,-0.8,0.9,2485.269,13.28,772.0,0.725,87.3
2023-12-20T05:21:13,2420,42.8014,5.9826,0.668,0.048,3.702,155.0,151.0,152.0,11.8,1504.7,271.4,-0.8,0.9,2485.071,13.28,767.0,0.67,85.9
2023-12-20T05:24:12,2420,42.8014,5.9826,0.188,0.046,3.339,155.0,151.0,152.0,11.8,1504.7,271.3,-0.8,0.9,2485.344,13.28,776.0,0.193,76.3
2023-12-20T05:27:13,2420,42.8014,5.9826,0.444,0.029,3.936,155.0,152.0,152.0,11.8,1504.7,271.4,-0.8,0.9,2485.281,13.28,782.0,0.445,86.3
2023-12-20T05:30:13,2420,42.8014,5.9826,0.754,0.047,3.604,155.0,151.0,152.0,11.8,1504.7,271.5,-0.8,0.9,2485.607,13.28,780.0,0.755,86.4
2023-12-20T05:33:13,2420,42.8014,5.9826,0.534,0.054,3.851,155.0,151.0,152.0,11.8,1504.7,271.4,-0.8,0.9,2485.275,13.28,766.0,0.537,84.2
2023-12-20T05:36:13,2420,42.8014,5.9826,0.747,0.04,3.629,155.0,151.0,152.0,11.8,1504.7,271.3,-0.8,0.9,2484.992,13.28,769.0,0.748,86.9
2023-12-20T05:39:13,2420,42.8014,5.9826,0.798,0.276,3.143,155.0,152.0,152.0,11.8,1504.7,271.4,-0.8,0.9,2485.137,13.28,764.0,0.844,70.9
2023-12-20T05:42:13,2420,42.8014,5.9826,0.349,0.039,4.046,155.0,151.0,152.0,11.8,1504.7,271.5,-0.8,0.9,2485.225,13.28,769.0,0.351,83.6
2023-12-20T05:45:13,2420,42.8014,5.9826,0.32,-0.195,3.653,155.0,152.0,152.0,11.8,1504.7,271.3,-0.8,0.9,2485.265,13.28,772.0,0.375,121.4
2023-12-20T05:48:13,2420,42.8014,5.9826,0.363,-0.194,3.565,155.0,152.0,152.0,11.7,1504.7,271.5,-0.8,0.9,2485.099,13.28,777.0,0.412,118.1
2023-12-20T05:51:13,2420,42.8014,5.9826,0.864,0.021,3.427,155.0,151.0,152.0,11.8,1504.7,271.3,-0.8,0.9,2485.137,13.28,753.0,0.864,88.6
2023-12-20T05:54:12,2420,42.8014,5.9826,0.481,0.023,3.014,155.0,151.0,152.0,11.8,1504.7,271.4,-0.8,0.9,2485.081,13.28,769.0,0.482,87.3
2023-12-20T05:57:12,2420,42.8014,5.9826,0.436,0.286,3.514,155.0,151.0,152.0,11.8,1504.7,271.5,-0.8,0.9,2484.635,13.28,767.0,0.521,56.7
2023-12-20T06:03:12,2420,42.8014,5.9826,0.54,0.279,3.45,155.0,151.0,152.0,11.8,1504.7,271.3,-0.8,0.9,2485.364,13.28,763.0,0.608,62.7
2023-12-20T06:06:12,2420,42.8014,5.9826,0.7,0.038,3.671,155.0,151.0,152.0,11.8,1504.7,271.4,-0.8,0.9,2485.263,13.28,774.0,0.701,86.9
2023-12-20T06:09:13,2420,42.8014,5.9826,0.673,0.052,3.724,155.0,151.0,152.0,11.8,1504.7,271.4,-0.8,0.9,2485.085,13.28,768.0,0.675,85.6
2023-12-20T06:12:13,2420,42.8014,5.9826,0.498,-0.202,3.405,155.0,151.0,152.0,11.8,1504.7,271.4,-0.8,0.9,2485.04,13.28,763.0,0.537,112.1
2023-12-20T06:15:13,2420,42.8014,5.9826,0.681,0.059,3.709,155.0,152.0,152.0,11.8,1504.7,271.4,-0.8,0.9,2485.334,13.28,766.0,0.683,85.1
2023-12-20T06:18:13,2420,42.8014,5.9826,0.158,-0.194,3.806,155.0,151.0,152.0,11.8,1504.7,271.4,-0.8,0.9,2485.528,13.28,761.0,0.25,140.8
2023-12-20T06:21:13,2420,42.8014,5.9826,0.282,-0.191,3.645,155.0,152.0,152.0,11.8,1504.7,271.4,-0.8,0.9,2485.195,13.28,760.0,0.341,124.1
2023-12-20T06:24:13,2420,42.8014,5.9826,0.022,-0.193,3.014,155.0,151.0,152.0,11.8,1504.7,271.5,-0.8,0.9,2485.251,13.28,780.0,0.194,173.5
2023-12-20T06:27:12,2420,42.8014,5.9826,0.542,0.386,3.223,155.0,151.0,152.0,11.8,1504.7,271.6,-0.8,0.9,2485.49,13.28,773.0,0.665,54.5
2023-12-20T06:30:13,2420,42.8014,5.9826,0.627,0.04,3.71,155.0,152.0,152.0,11.8,1504.7,271.3,-0.8,0.9,2485.338,13.28,767.0,0.628,86.4
2023-12-20T06:33:12,2420,42.8014,5.9826,0.527,0.056,3.831,155.0,151.0,152.0,11.8,1504.7,271.5,-0.8,0.9,2485.414,13.28,767.0,0.53,83.9
2023-12-20T06:36:13,2420,42.8014,5.9826,0.885,0.032,3.507,155.0,151.0,152.0,11.8,1504.7,271.7,-0.8,0.9,2484.976,13.28,775.0,0.886,87.9
2023-12-20T06:39:12,2420,42.8014,5.9826,0.568,0.036,3.814,155.0,151.0,152.0,11.8,1504.7,271.5,-0.9,0.9,2485.438,13.28,768.0,0.569,86.4
2023-12-20T06:42:13,2420,42.8014,5.9826,0.403,-0.198,3.556,155.0,151.0,152.0,11.8,1504.7,271.3,-0.8,0.9,2485.281,13.28,758.0,0.449,116.2
2023-12-20T06:45:13,2420,42.8014,5.9826,0.275,0.067,4.059,155.0,151.0,152.0,11.8,1504.7,271.4,-0.8,0.9,2484.906,13.28,783.0,0.283,76.3
2023-12-20T06:48:13,2420,42.8014,5.9826,0.409,0.052,3.955,155.0,152.0,152.0,11.7,1504.7,271.5,-0.8,0.9,2485.261,13.28,766.0,0.412,82.8
2023-12-20T06:51:13,2420,42.8014,5.9826,0.369,-0.465,3.132,155.0,151.0,152.0,11.8,1504.7,271.3,-0.8,0.9,2485.364,13.28,769.0,0.594,141.6
2023-12-20T06:54:13,2420,42.8014,5.9826,0.5,-0.214,3.395,155.0,152.0,152.0,11.8,1504.7,271.3,-0.9,0.9,2485.034,13.28,765.0,0.544,113.2
2023-12-20T06:57:13,2420,42.8014,5.9826,0.346,0.059,4.049,155.0,151.0,152.0,11.8,1504.7,271.3,-0.8,0.9,2485.51,13.28,783.0,0.351,80.3
2023-12-20T07:03:12,2420,42.8014,5.9826,0.656,0.028,2.817,155.0,151.0,152.0,11.8,1504.7,271.3,-0.9,0.9,2485.398,13.28,772.0,0.657,87.6
2023-12-20T07:06:12,2420,42.8014,5.9826,0.437,0.286,3.505,155.0,151.0,152.0,11.8,1504.7,271.4,-0.9,0.9,2485.221,13.28,764.0,0.522,56.8
2023-12-20T07:09:12,2420,42.8014,5.9826,0.26,0.288,2.804,155.0,151.0,152.0,11.8,1504.7,271.4,-0.8,0.9,2485.032,13.28,778.0,0.388,42.1
2023-12-20T07:12:12,2420,42.8014,5.9826,-0.007,0.282,3.101,155.0,152.0,152.0,11.8,1504.7,271.4,-0.8,0.9,2485.055,13.28,780.0,0.282,358.6
2023-12-20T07:15:12,2420,42.8014,5.9826,0.478,0.062,3.894,155.0,151.0,152.0,11.8,1504.7,271.4,-0.8,0.8,2485.233,13.28,771.0,0.482,82.6
2023-12-20T07:18:13,2420,42.8014,5.9826,0.344,0.062,4.047,155.0,151.0,152.0,11.8,1504.7,271.3,-0.8,0.9,2485.247,13.28,769.0,0.349,79.8
2023-12-20T07:21:13,2420,42.8014,5.9826,0.498,0.035,3.871,155.0,152.0,152.0,11.8,1504.7,271.5,-0.8,0.9,2485.53,13.28,771.0,0.499,86.0
2023-12-20T07:24:13,2420,42.8014,5.9826,0.446,0.547,3.102,155.0,151.0,152.0,11.8,1504.7,271.4,-0.8,0.9,2485.249,13.28,759.0,0.706,39.2
2023-12-20T07:27:13,2420,42.8014,5.9826,0.545,-0.197,3.38,155.0,151.0,152.0,11.8,1504.7,271.4,-0.8,0.9,2484.615,13.28,777.0,0.579,109.9
2023-12-20T07:30:13,2420,42.8014,5.9826,0.372,-0.438,3.086,155.0,151.0,152.0,11.8,1504.7,271.5,-0.8,0.9,2485.526,13.28,781.0,0.575,139.7
2023-12-20T07:33:12,2420,42.8014,5.9826,0.198,0.537,3.309,155.0,151.0,152.0,11.8,1504.7,271.4,-0.8,0.9,2484.954,13.28,764.0,0.572,20.2
2023-12-20T07:36:12,2420,42.8014,5.9826,0.186,0.534,3.383,155.0,151.0,152.0,11.8,1504.7,271.3,-0.8,0.9,2485.002,13.28,774.0,0.565,19.2
2023-12-20T07:39:13,2420,42.8014,5.9826,0.112,-0.445,3.413,155.0,152.0,152.0,11.8,1504.7,271.4,-0.8,0.9,2485.456,13.28,755.0,0.459,165.9
2023-12-20T07:42:13,2420,42.8014,5.9826,0.33,0.044,4.078,155.0,151.0,152.0,11.8,1504.7,271.4,-0.9,0.8,2484.918,13.28,754.0,0.333,82.4
2023-12-20T07:45:13,2420,42.8014,5.9826,0.782,0.287,3.139,155.0,151.0,152.0,11.8,1504.7,271.4,-0.8,0.9,2484.852,13.28,771.0,0.833,69.9
2023-12-20T07:48:13,2420,42.8014,5.9826,0.432,0.06,3.989,155.0,151.0,152.0,11.8,1504.7,271.4,-0.8,0.9,2485.243,13.28,768.0,0.436,82.1
2023-12-20T07:51:13,2420,42.8014,5.9826,0.477,0.288,3.445,155.0,151.0,152.0,11.7,1504.7,271.3,-0.8,0.9,2485.454,13.28,772.0,0.557,58.9
2023-12-20T07:54:13,2420,42.8014,5.9826,0.207,0.308,3.734,155.0,151.0,152.0,11.8,1504.7,271.3,-0.8,0.9,2485.179,13.28,783.0,0.371,33.9
2023-12-20T07:57:13,2420,42.8014,5.9826,0.3,0.311,3.647,155.0,151.0,152.0,11.8,1504.7,271.3,-0.9,0.9,2485.131,13.28,754.0,0.432,44.0
2023-12-20T08:03:13,2420,42.8014,5.9826,0.324,0.053,3.137,155.0,151.0,152.0,11.7,1504.7,271.3,-0.9,0.9,2484.942,13.28,769.0,0.328,80.7
2023-12-20T08:06:13,2420,42.8014,5.9826,0.128,0.299,2.934,155.0,152.0,152.0,11.8,1504.7,271.3,-0.8,0.9,2484.737,13.28,768.0,0.325,23.2
2023-12-20T08:09:13,2420,42.8014,5.9826,0.358,0.291,3.548,155.0,152.0,152.0,11.8,1504.7,271.3,-0.9,0.9,2485.5,13.28,767.0,0.461,50.9
2023-12-20T08:12:13,2420,42.8014,5.9826,0.428,0.062,3.924,155.0,151.0,152.0,11.8,1504.7,271.4,-0.8,0.9,2485.45,13.28,760.0,0.432,81.8
2023-12-20T08:15:13,2420,42.8014,5.9826,0.624,0.048,3.767,155.0,152.0,152.0,11.8,1504.7,271.5,-0.8,0.9,2485.0,13.28,783.0,0.626,85.6
2023-12-20T08:18:13,2420,42.8014,5.9826,0.447,-0.189,3.474,155.0,152.0,152.0,11.8,1504.7,271.3,-0.9,0.9,2485.424,13.28,775.0,0.485,112.9
2023-12-20T08:21:12,2420,42.8014,5.9826,0.373,0.068,3.985,155.0,151.0,152.0,11.8,1504.7,271.3,-0.9,0.9,2485.354,13.28,765.0,0.379,79.7
2023-12-20T08:24:13,2420,42.8014,5.9826,-0.046,0.522,2.704,155.0,151.0,152.0,11.8,1504.7,271.3,-0.8,0.9,2485.269,13.28,765.0,0.524,355.0
2023-12-20T08:27:13,2420,42.8014,5.9826,0.708,0.037,3.686,155.0,151.0,152.0,11.8,1504.7,271.4,-0.8,0.9,2485.279,13.28,775.0,0.709,87.0
2023-12-20T08:30:13,2420,42.8014,5.9826,0.325,-0.185,3.635,155.0,151.0,152.0,11.8,1504.7,271.3,-0.8,0.9,2485.305,13.28,777.0,0.374,119.7
2023-12-20T08:33:12,2420,42.8014,5.9826,0.307,0.292,3.645,155.0,152.0,152.0,11.8,1504.7,271.4,-0.8,0.9,2485.155,13.28,764.0,0.424,46.4
2023-12-20T08:36:13,2420,42.8014,5.9826,0.0,-0.687,3.038,155.0,151.0,152.0,11.7,1504.7,271.3,-0.8,0.9,2485.121,13.28,764.0,0.687,180.0
2023-12-20T08:39:13,2420,42.8014,5.9826,0.353,-0.694,2.731,155.0,151.0,152.0,11.8,1504.7,271.3,-0.8,0.9,2485.43,13.28,754.0,0.779,153.0
2023-12-20T08:42:13,2420,42.8014,5.9826,0.044,0.04,3.472,155.0,151.0,152.0,11.8,1504.7,271.3,-0.8,0.9,2485.326,13.28,765.0,0.059,47.7
2023-12-20T08:45:13,2420,42.8014,5.9826,0.709,0.267,3.249,155.0,151.0,152.0,11.8,1504.7,271.4,-0.8,0.9,2485.223,13.28,780.0,0.758,69.4
2023-12-20T08:48:13,2420,42.8014,5.9826,0.237,-0.17,3.703,155.0,151.0,152.0,11.8,1504.7,271.5,-0.9,0.9,2485.488,13.28,765.0,0.292,125.7
2023-12-20T08:51:12,2420,42.8014,5.9826,0.474,0.044,3.022,155.0,151.0,152.0,11.8,1504.7,271.4,-0.8,0.9,2485.285,13.28,771.0,0.476,84.7
2023-12-20T08:54:12,2420,42.8014,5.9826,0.623,0.05,3.76,155.0,151.0,152.0,11.8,1504.7,271.3,-0.8,0.9,2485.247,13.28,767.0,0.625,85.4
2023-12-20T08:57:13,2420,42.8014,5.9826,0.492,0.273,3.409,155.0,151.0,152.0,11.8,1504.7,271.4,-0.8,0.9,2484.998,13.28,779.0,0.563,61.0
2023-12-20T09:03:12,2420,42.8014,5.9826,0.482,0.274,3.459,155.0,151.0,152.0,11.8,1504.7,271.4,-0.8,0.9,2485.374,13.28,768.0,0.554,60.4
2023-12-20T09:06:13,2420,42.8014,5.9826,0.195,-0.474,2.457,155.0,151.0,152.0,11.8,1504.7,271.3,-0.9,0.8,2485.753,13.28,760.0,0.512,157.6